Location: Wald
(31.7579°N, 86.6655°W)
Time: 20:51:46
(UTC+00:00)

COSMOS 2455 - Pass Details

Date: 14 July 2020
Orbit: 898 x 911 km, 67.1° (Epoch: 13 August)

Event Time Altitude Azimuth Distance (km) Brightness Sun altitude
Rises 03:24:55 0° 350° (N) 3,545 6.9 -26.0°
Reaches altitude 10° 03:28:09 10° 7° (N) 2,601 5.8 -26.4°
Maximum altitude 03:32:33 21° 54° (NE) 1,945 4.5 -27.0°
Enters shadow 03:33:18 20° 64° (ENE) 1,967 4.5 -27.1°
